Weather History for KOTM - March, 2013

Change the Weather History Date:

Monday, March 11, 2013

  Actual Average Record
Temperature  
Mean Temperature 30 °F 37 °F  
Max Temperature 34 °F 47 °F 78 °F (1972)
Min Temperature 25 °F 27 °F -7 °F (1948)
Degree Days  
Heating Degree Days 35 28  
Month to date heating degree days 397 335  
Since 1 July heating degree days 4924 5220  
Cooling Degree Days 0 0  
Month to date cooling degree days 0 0  
Year to date cooling degree days 0 0  
Moisture  
Dew Point 26 °F    
Average Humidity 85    
Maximum Humidity 100    
Minimum Humidity 69    
Precipitation  
Precipitation 0.01 in 0.07 in 2.53 in (1977)
Month to date precipitation 1.83 0.74  
Year to date precipitation 5.16 2.92  
Sea Level Pressure  
Sea Level Pressure 29.79 in    
Wind  
Wind Speed 14 mph (WNW)    
Max Wind Speed 23 mph    
Max Gust Speed 29 mph    
Visibility 8 miles    
Events Snow    
T = Trace of Precipitation, MM = Missing Value Source: NWS Daily Summary

Daily Weather History Graph

Daily Weather History Graph

Search for Another Location

Airport or City:

Trip Planner

Search our weather history database for the weather conditions in past years. The results will help you decide how hot, cold, wet, or windy it might be!

Date:

Astronomy

Mar. 11, 2013 Rise Set
Actual Time 7:27 AM CDT 7:12 PM CDT
Civil Twilight 7:00 AM CDT 7:39 PM CDT
Nautical Twilight 6:28 AM CDT 8:11 PM CDT
Astronomical Twilight 5:56 AM CDT 8:44 PM CDT
Moon 7:01 AM CDT (3/11) 7:25 PM CDT (3/11)
Length of Visible Light 12h 39m
Length of Day
11h 44m
Waning Crescent, 0% of the Moon is Illuminated
Mar 11
Waning Crescent
Mar 11
New
Mar 19
First Quarter
Mar 27
Full
Apr 2
Last Quarter

Hourly Weather History & Observations

Time (CDT) Temp. Windchill Dew Point Humidity Pressure Visibility Wind Dir Wind Speed Gust Speed Precip Events Conditions
12:28 AM 33.8 °F 26.4 °F 33.8 °F 100% 29.67 in 2.5 mi WNW 9.2 mph - N/A   Overcast
12:53 AM 34.0 °F 26.6 °F 33.1 °F 96% 29.69 in 2.5 mi NW 9.2 mph - N/A   Overcast
1:53 AM 34.0 °F 27.2 °F 33.1 °F 96% 29.70 in 2.0 mi WNW 8.1 mph - N/A   Overcast
2:53 AM 33.1 °F 24.4 °F 32.0 °F 96% 29.68 in 2.5 mi WNW 11.5 mph - 0.01 in   Overcast
3:53 AM 33.1 °F 23.9 °F 32.0 °F 96% 29.67 in 2.5 mi WNW 12.7 mph - N/A   Overcast
4:53 AM 32.0 °F 22.1 °F 30.2 °F 93% 29.64 in 3.0 mi NW 13.8 mph - N/A   Overcast
5:15 AM 32.0 °F 21.6 °F 30.2 °F 93% 29.65 in 3.0 mi NW 15.0 mph - N/A   Overcast
5:53 AM 32.0 °F 22.1 °F 30.9 °F 96% 29.69 in 4.0 mi NW 13.8 mph - N/A   Overcast
6:53 AM 32.0 °F 22.5 °F 30.0 °F 92% 29.71 in 7.0 mi NW 12.7 mph - N/A   Overcast
7:53 AM 32.0 °F 22.5 °F 28.9 °F 88% 29.73 in 3.0 mi NW 12.7 mph - 0.00 in Snow Light Snow
8:53 AM 30.9 °F 21.2 °F 28.9 °F 92% 29.74 in 10.0 mi WNW 12.7 mph - 0.00 in   Overcast
9:53 AM 30.0 °F 19.1 °F 27.0 °F 88% 29.75 in 7.0 mi WNW 15.0 mph 20.7 mph N/A   Overcast
10:53 AM 30.0 °F 17.5 °F 26.1 °F 85% 29.77 in 10.0 mi WNW 19.6 mph - N/A   Overcast
11:30 AM 30.2 °F 18.1 °F 26.6 °F 86% 29.74 in 10.0 mi WNW 18.4 mph 24.2 mph N/A   Overcast
11:53 AM 30.0 °F 17.5 °F 26.1 °F 85% 29.77 in 10.0 mi WNW 19.6 mph 26.5 mph N/A   Overcast
12:53 PM 30.0 °F 18.3 °F 26.1 °F 85% 29.79 in 10.0 mi WNW 17.3 mph - N/A   Overcast
1:53 PM 30.0 °F 18.7 °F 25.0 °F 82% 29.80 in 10.0 mi WNW 16.1 mph 23.0 mph N/A   Overcast
2:53 PM 30.0 °F 18.3 °F 25.0 °F 82% 29.80 in 10.0 mi WNW 17.3 mph - N/A   Overcast
3:53 PM 30.0 °F 17.9 °F 25.0 °F 82% 29.81 in 10.0 mi WNW 18.4 mph 24.2 mph N/A   Overcast
4:03 PM 30.2 °F 18.5 °F 24.8 °F 80% 29.79 in 10.0 mi WNW 17.3 mph 26.5 mph N/A   Overcast
4:53 PM 30.0 °F 17.2 °F 23.0 °F 75% 29.84 in 10.0 mi WNW 20.7 mph 28.8 mph N/A   Overcast
5:53 PM 28.4 °F 17.5 °F 21.2 °F 74% 29.83 in 10.0 mi WNW 13.8 mph - N/A   Overcast
6:53 PM 28.9 °F 18.2 °F 21.9 °F 75% 29.88 in 10.0 mi WNW 13.8 mph 19.6 mph N/A   Overcast
7:53 PM 28.9 °F 17.7 °F 21.0 °F 72% 29.90 in 10.0 mi WNW 15.0 mph - N/A   Overcast
8:53 PM 28.0 °F 16.1 °F 19.0 °F 69% 29.94 in 10.0 mi West 16.1 mph - N/A   Overcast
9:53 PM 26.1 °F 14.5 °F 19.0 °F 75% 29.95 in 10.0 mi West 13.8 mph - N/A   Overcast
10:01 PM 26.6 °F 15.7 °F 19.4 °F 74% 29.92 in 10.0 mi WNW 12.7 mph - N/A   Mostly Cloudy
10:53 PM 26.1 °F 16.8 °F 19.0 °F 75% 29.96 in 10.0 mi WNW 9.2 mph - N/A   Mostly Cloudy
11:53 PM 26.1 °F 16.2 °F 19.0 °F 75% 29.97 in 10.0 mi West 10.4 mph - N/A   Clear